Laramie, WY

8:34 AM MDT on June 22, 2017 (GMT -0600)
Laramie Regional

Weather History for KLAR - December, 2013

Change the Weather History Date:

Wednesday, December 25, 2013

  Actual Average Record
Temperature  
Mean Temperature 21 °F 21 °F  
Max Temperature 32 °F 32 °F 52 °F (2005)
Min Temperature 10 °F 10 °F -30 °F (1987)
Degree Days  
Heating Degree Days 44 44  
Month to date heating degree days 1167 1092  
Since 1 July heating degree days 3289 3404  
Cooling Degree Days 0 0  
Month to date cooling degree days 0 0  
Year to date cooling degree days 162 67  
Moisture  
Dew Point 7 °F    
Average Humidity 52    
Maximum Humidity 67    
Minimum Humidity 37    
Precipitation  
Precipitation 0.00 in 0.00 in 0.28 in (2014)
Month to date precipitation 0.07 0.26  
Year to date precipitation 11.99 10.86  
Sea Level Pressure  
Sea Level Pressure 30.41 in    
Wind  
Wind Speed 13 mph (WSW)    
Max Wind Speed 23 mph    
Max Gust Speed 26 mph    
Visibility 10 miles    
Events      
T = Trace of Precipitation, MM = Missing Value Source: NWS Daily Summary

Daily Weather History Graph

Daily Weather History Graph

Search for Another Location

Airport or City:

Trip Planner

Search our weather history database for the weather conditions in past years. The results will help you decide how hot, cold, wet, or windy it might be!

Date:

Astronomy

Dec. 25, 2013 Rise Set
Actual Time 7:26 AM MST 4:39 PM MST
Civil Twilight 6:55 AM MST 5:10 PM MST
Nautical Twilight 6:20 AM MST 5:45 PM MST
Astronomical Twilight 5:47 AM MST 6:18 PM MST
Moon No Moon Rise 11:47 AM MST (12/25)
Length of Visible Light 10h 14m
Length of Day
9h 12m
Waning Gibbous, 48% of the Moon is Illuminated
Dec 25
Waning Gibbous
Jan 1
New
Jan 7
First Quarter
Jan 15
Full
Jan 23
Last Quarter

Hourly Weather History & Observations

Time (MST) Temp. Windchill Dew Point Humidity Pressure Visibility Wind Dir Wind Speed Gust Speed Precip Events Conditions
12:53 AM 16.0 °F 1.7 °F 5.0 °F 62% 30.37 in 10.0 mi WSW 13.8 mph - N/A   Clear
1:53 AM 12.9 °F -3.9 °F 3.9 °F 67% 30.39 in 10.0 mi West 17.3 mph - N/A   Clear
2:53 AM 12.0 °F -3.4 °F 3.9 °F 70% 30.43 in 10.0 mi West 13.8 mph - N/A   Clear
3:53 AM 14.0 °F -0.2 °F 5.0 °F 67% 30.41 in 10.0 mi West 12.7 mph - N/A   Clear
4:53 AM 15.1 °F -0.1 °F 5.0 °F 64% 30.44 in 10.0 mi West 15.0 mph - N/A   Clear
5:53 AM 12.9 °F -1.6 °F 3.9 °F 67% 30.50 in 10.0 mi WSW 12.7 mph - N/A   Clear
6:53 AM 12.0 °F -2.0 °F 3.0 °F 67% 30.52 in 10.0 mi West 11.5 mph - N/A   Clear
7:53 AM 14.0 °F 1.2 °F 3.0 °F 62% 30.53 in 10.0 mi WSW 10.4 mph - N/A   Clear
8:53 AM 19.0 °F 6.8 °F 5.0 °F 54% 30.48 in 10.0 mi West 11.5 mph - N/A   Clear
9:53 AM 23.0 °F 13.1 °F 10.0 °F 58% 30.46 in 10.0 mi West 9.2 mph - N/A   Clear
10:53 AM 26.1 °F 14.0 °F 10.0 °F 51% 30.43 in 10.0 mi West 15.0 mph - N/A   Clear
11:53 AM 28.0 °F 17.5 °F 10.9 °F 49% 30.40 in 10.0 mi WSW 12.7 mph - N/A   Clear
12:53 PM 30.0 °F 20.0 °F 12.9 °F 49% 30.38 in 10.0 mi SW 12.7 mph - N/A   Clear
1:53 PM 30.9 °F 20.7 °F 14.0 °F 50% 30.38 in 10.0 mi SW 13.8 mph - N/A   Clear
2:53 PM 30.9 °F 20.2 °F 14.0 °F 50% 30.38 in 10.0 mi SW 15.0 mph - N/A   Clear
3:53 PM 28.0 °F 16.1 °F 10.9 °F 49% 30.39 in 10.0 mi SW 16.1 mph - N/A   Clear
4:53 PM 25.0 °F 10.9 °F 9.0 °F 51% 30.40 in 10.0 mi SW 19.6 mph - N/A   Clear
5:53 PM 24.1 °F 12.0 °F 8.1 °F 51% 30.41 in 10.0 mi SW 13.8 mph - N/A   Clear
6:53 PM 19.9 °F 9.3 °F 7.0 °F 57% 30.44 in 10.0 mi SW 9.2 mph - N/A   Clear
7:53 PM 21.9 °F 9.2 °F 7.0 °F 53% 30.41 in 10.0 mi SW 13.8 mph - N/A   Clear
8:53 PM 21.0 °F 7.6 °F 6.1 °F 53% 30.38 in 10.0 mi West 15.0 mph - N/A   Clear
9:53 PM 24.1 °F 13.7 °F 5.0 °F 44% 30.32 in 10.0 mi SSW 10.4 mph 19.6 mph N/A   Clear
10:53 PM 26.1 °F 12.3 °F 3.9 °F 39% 30.31 in 10.0 mi WSW 19.6 mph - N/A   Clear
11:53 PM 19.9 °F 10.1 °F 3.0 °F 48% 30.32 in 10.0 mi West 8.1 mph - N/A   Clear